Weather History for KLGU - November, 2012

Change the Weather History Date:

Wednesday, November 7, 2012

  Actual Average Record
Temperature  
Mean Temperature 47 °F -  
Max Temperature 66 °F 50 °F 66 °F (2006)
Min Temperature 28 °F 27 °F 12 °F (1971)
Degree Days  
Heating Degree Days 18    
Moisture  
Dew Point 30 °F    
Average Humidity 71    
Maximum Humidity 100    
Minimum Humidity 24    
Precipitation  
Precipitation 0.00 in - - ()
Sea Level Pressure  
Sea Level Pressure 30.05 in    
Wind  
Wind Speed 1 mph (SSE)    
Max Wind Speed 8 mph    
Max Gust Speed -    
Visibility 9 miles    
Events      
Averages and records for this station are not official NWS values.
T = Trace of Precipitation, MM = Missing Value Source: NWS Daily Summary

Daily Weather History Graph

Daily Weather History Graph

Search for Another Location

Airport or City:

Trip Planner

Search our weather history database for the weather conditions in past years. The results will help you decide how hot, cold, wet, or windy it might be!

Date:

Astronomy

Nov. 07, 2012 Rise Set
Actual Time 7:07 AM MST 5:14 PM MST
Civil Twilight 6:38 AM MST 5:43 PM MST
Nautical Twilight 6:05 AM MST 6:16 PM MST
Astronomical Twilight 5:32 AM MST 6:49 PM MST
Moon No Moon Rise 1:30 PM MST (11/7)
Length of Visible Light 11h 05m
Length of Day
10h 06m
Last Quarter, 42% of the Moon is Illuminated
Nov 7
Last Quarter
Nov 13
New
Nov 20
First Quarter
Nov 28
Full
Dec 6
Last Quarter

Hourly Weather History & Observations

Time (MST) Temp. Windchill Dew Point Humidity Pressure Visibility Wind Dir Wind Speed Gust Speed Precip Events Conditions
12:51 AM 34.0 °F - 28.9 °F 82% 30.16 in 10.0 mi Calm Calm - N/A   Clear
1:51 AM 34.0 °F - 30.9 °F 89% 30.14 in 10.0 mi Calm Calm - N/A   Clear
2:51 AM 30.9 °F - 28.0 °F 89% 30.13 in 10.0 mi Calm Calm - N/A   Clear
3:51 AM 30.0 °F - 27.0 °F 88% 30.11 in 10.0 mi Calm Calm - N/A   Clear
5:36 AM 28.4 °F 23.3 °F 26.6 °F 93% 30.15 in 2.5 mi SW 4.6 mph - N/A   Partly Cloudy
5:49 AM 28.4 °F - 28.4 °F 100% 30.15 in 9.0 mi Calm Calm - N/A   Partly Cloudy
5:51 AM 28.9 °F - 28.0 °F 96% 30.15 in 10.0 mi Calm Calm - N/A   Partly Cloudy
6:21 AM 28.4 °F 24.6 °F 26.6 °F 93% 30.14 in 2.5 mi SE 3.5 mph - N/A   Mostly Cloudy
6:27 AM 28.4 °F - 26.6 °F 93% 30.14 in 6.0 mi Calm Calm - N/A   Mostly Cloudy
6:42 AM 30.2 °F - 26.6 °F 86% 30.14 in 10.0 mi Calm Calm - N/A   Scattered Clouds
6:51 AM 28.9 °F 25.2 °F 26.1 °F 89% 30.15 in 10.0 mi East 3.5 mph - N/A   Partly Cloudy
7:51 AM 30.0 °F - 28.0 °F 92% 30.17 in 10.0 mi Calm Calm - N/A   Clear
9:51 AM 43.0 °F - 35.1 °F 74% 30.12 in 10.0 mi Calm Calm - N/A   Clear
10:51 AM 50.0 °F - 35.1 °F 57% 30.08 in 10.0 mi Calm Calm - N/A   Clear
12:51 PM 61.0 °F - 34.0 °F 36% 29.99 in 10.0 mi Calm Calm - N/A   Clear
1:51 PM 64.9 °F - 32.0 °F 29% 29.95 in 10.0 mi Calm Calm - N/A   Clear
2:51 PM 66.9 °F - 28.9 °F 24% 29.93 in 10.0 mi South 6.9 mph - N/A   Clear
4:51 PM 62.1 °F - 30.9 °F 31% 29.92 in 10.0 mi SSW 6.9 mph - N/A   Clear
5:51 PM 59.0 °F - 28.9 °F 32% 29.92 in 10.0 mi SE 8.1 mph - N/A   Clear
6:51 PM 50.0 °F - 30.9 °F 48% 29.93 in 10.0 mi SSE 3.5 mph - N/A   Clear
7:51 PM 44.1 °F - 32.0 °F 63% 29.94 in 10.0 mi Calm Calm - N/A   Clear
8:51 PM 39.9 °F 36.7 °F 30.9 °F 70% 29.94 in 10.0 mi NNE 4.6 mph - N/A   Clear
10:51 PM 39.0 °F 36.8 °F 30.9 °F 73% 29.88 in 10.0 mi WNW 3.5 mph - N/A   Clear
11:51 PM 36.0 °F - 30.0 °F 79% 29.86 in 10.0 mi Calm Calm - N/A   Clear